Location: Il Ritiro
(43.4167°N, 13.1333°E)
Time: 16:55:32
(UTC+00:00)

Cosmos 1000 Rocket - Pass Details

Date: 05 July 2020
Orbit: 954 x 991 km, 82.9° (Epoch: 10 August)

Event Time Altitude Azimuth Distance (km) Brightness Sun altitude
Rises 23:44:36 0° 351° (N) 3,713 8.8 -23.5°
Reaches altitude 10° 23:47:08 10° 351° (N) 2,762 7.8 -23.4°
Maximum altitude 23:53:29 83° 265° (W) 1,004 4.4 -23.2°
Enters shadow 23:55:28 47° 182° (S) 1,283 4.7 -23.2°
